User: anonymous   Login
Location: Pacheco
(37.9835°N, 122.0752°W)
Time: 20:04:09
(UTC+00:00)
Language:

Cosmos 921 Rocket - Orbit

View from above orbital plane
View from above orbital plane
View from above satellite
View from above satellite

Ground track
Ground track

The orbit data is extracted from the following two-line orbital elements,

1 10096U 77055B   24177.28006381  .00000801  00000-0  83127-4 0  9993
2 10096  75.8335 120.7815 0041059 151.0383 209.3100 14.90370233543798
Epoch (UTC): 25 June 2024 06:43:17
Eccentricity: 0.0041059
inclination: 75.8335°
perigee height: 568 km
apogee height: 625 km
right ascension of ascending node: 120.7815°
argument of perigee: 151.0383°
revolutions per day: 14.90370233
mean anomaly at epoch: 209.3100°
orbit number at epoch: 54379

The dashed part of the orbit path shows where the satellite is in the earth's shadow,  

DLR